FW4378 Weather Reports


time (UTC)temp
C
wind
direction
speed
KPH
gust
KPH
rain 1hr
cm
rain 24hr
cm
rain mn
cm
humidity
%
barometer
mb
20260906155520 32 87 0.0 0.0 0.00 0.00 0.00 49 1015.4
20260906155017 32 82 0.0 0.0 0.00 0.00 0.00 50 1015.3
20260906154512 32 59 1.6 3.2 0.00 0.00 0.00 50 1015.5
20260906154010 32 74 0.0 0.0 0.00 0.00 0.00 50 1015.1
20260906153509 32 38 1.6 1.6 0.00 0.00 0.00 51 1015.4
20260906153005 32 65 0.0 0.0 0.00 0.00 0.00 52 1015.4
20260906152505 31 161 0.0 0.0 0.00 0.00 0.00 54 1015.2
20260906152004 31 59 0.0 0.0 0.00 0.00 0.00 54 1015.5
20260906151500 30 59 0.0 0.0 0.00 0.00 0.00 55 1015.4
20260906150955 31 67 3.2 4.8 0.00 0.00 0.00 54 1015.3
20260906150450 31 47 1.6 3.2 0.00 0.00 0.00 55 1015.3
20260906145949 30 50 1.6 3.2 0.00 0.00 0.00 55 1015.4
20260906145444 30 61 0.0 0.0 0.00 0.00 0.00 56 1015.3
20260906144943 30 39 1.6 4.8 0.00 0.00 0.00 58 1015.2
20260906144438 30 65 1.6 3.2 0.00 0.00 0.00 57 1015.4
20260906143934 30 60 1.6 3.2 0.00 0.00 0.00 58 1015.0
20260906143430 30 90 0.0 0.0 0.00 0.00 0.00 59 1015.2
20260906142925 30 44 0.0 0.0 0.00 0.00 0.00 58 1015.3
20260906142425 30 53 3.2 4.8 0.00 0.00 0.00 59 1015.2
20260906141920 30 61 0.0 0.0 0.00 0.00 0.00 58 1015.2
20260906141420 30 77 0.0 0.0 0.00 0.00 0.00 59 1015.3
20260906140914 29 77 0.0 0.0 0.00 0.00 0.00 61 1015.3
20260906140409 28 71 0.0 0.0 0.00 0.00 0.00 61 1015.3
20260906135907 28 74 0.0 0.0 0.00 0.00 0.00 62 1015.4
20260906135406 27 81 0.0 0.0 0.00 0.00 0.00 64 1015.4
20260906134902 27 72 0.0 0.0 0.00 0.00 0.00 64 1015.2
20260906134357 27 73 0.0 0.0 0.00 0.00 0.00 65 1015.2
20260906133852 27 72 0.0 0.0 0.00 0.00 0.00 66 1015.0
20260906133348 26 68 0.0 0.0 0.00 0.00 0.00 68 1015.2
20260906132844 26 71 0.0 0.0 0.00 0.00 0.00 69 1015.2
20260906132344 26 71 0.0 0.0 0.00 0.00 0.00 70 1015.1
20260906131840 26 73 0.0 0.0 0.00 0.00 0.00 70 1015.0
20260906131335 25 69 0.0 0.0 0.00 0.00 0.00 70 1015.0
20260906130831 25 74 0.0 0.0 0.00 0.00 0.00 72 1015.0
20260906130330 25 81 0.0 0.0 0.00 0.00 0.00 72 1015.1
20260906125829 25 77 0.0 0.0 0.00 0.00 0.00 72 1014.6
20260906125326 25 72 0.0 0.0 0.00 0.00 0.00 72 1014.6
20260906124821 25 73 0.0 0.0 0.00 0.00 0.00 72 1014.9
20260906124317 25 61 0.0 0.0 0.00 0.00 0.00 72 1015.1
20260906123816 25 71 0.0 0.0 0.00 0.00 0.00 72 1014.7
20260906123311 25 78 0.0 0.0 0.00 0.00 0.00 72 1014.7
20260906122811 25 73 0.0 1.6 0.00 0.00 0.00 72 1014.5
20260906122306 25 66 0.0 0.0 0.00 0.00 0.00 72 1014.5
20260906121803 24 67 0.0 0.0 0.00 0.00 0.00 73 1014.4
20260906121259 23 63 0.0 1.6 0.00 0.00 0.00 75 1014.4
20260906120754 23 64 1.6 1.6 0.00 0.00 0.00 78 1014.0
20260906120251 23 71 0.0 0.0 0.00 0.00 0.00 78 1013.9
20260906115747 23 75 0.0 0.0 0.00 0.00 0.00 77 1014.0
20260906115241 23 75 0.0 0.0 0.00 0.00 0.00 77 1014.0
20260906114740 23 74 0.0 0.0 0.00 0.00 0.00 78 1014.0
20260906114236 23 74 0.0 0.0 0.00 0.00 0.00 78 1013.9
20260906113731 23 75 0.0 0.0 0.00 0.00 0.00 77 1013.9
20260906113231 23 75 0.0 0.0 0.00 0.00 0.00 78 1013.9
20260906112730 23 73 0.0 0.0 0.00 0.00 0.00 78 1013.9
20260906112227 23 72 0.0 0.0 0.00 0.00 0.00 78 1013.9
20260906111726 23 74 0.0 0.0 0.00 0.00 0.00 78 1013.8
20260906111221 23 74 0.0 0.0 0.00 0.00 0.00 78 1013.7
20260906110716 23 75 0.0 0.0 0.00 0.00 0.00 78 1013.8
20260906110212 23 73 0.0 0.0 0.00 0.00 0.00 79 1013.7
20260906105711 23 73 0.0 0.0 0.00 0.00 0.00 79 1013.8
20260906105208 23 73 0.0 0.0 0.00 0.00 0.00 79 1013.8
20260906104707 23 73 0.0 0.0 0.00 0.00 0.00 79 1013.7
20260906104206 23 73 0.0 0.0 0.00 0.00 0.00 79 1013.8
20260906103703 23 73 0.0 0.0 0.00 0.00 0.00 78 1013.6
20260906103159 23 72 0.0 0.0 0.00 0.00 0.00 78 1013.6
20260906102654 23 73 0.0 0.0 0.00 0.00 0.00 78 1013.6
20260906102154 23 75 0.0 0.0 0.00 0.00 0.00 77 1013.7
20260906101653 23 76 0.0 0.0 0.00 0.00 0.00 77 1013.6
20260906101148 23 74 0.0 0.0 0.00 0.00 0.00 77 1013.8
20260906100645 23 74 0.0 0.0 0.00 0.00 0.00 77 1013.6
20260906100144 23 78 0.0 0.0 0.00 0.00 0.00 77 1013.5
20260906095639 23 76 0.0 0.0 0.00 0.00 0.00 77 1013.5
20260906095135 23 73 0.0 0.0 0.00 0.00 0.00 76 1013.5
20260906094634 23 72 0.0 0.0 0.00 0.00 0.00 76 1013.4
20260906094130 23 74 0.0 0.0 0.00 0.00 0.00 77 1013.4
20260906093626 23 71 0.0 0.0 0.00 0.00 0.00 76 1013.6
20260906093125 24 70 0.0 0.0 0.00 0.00 0.00 76 1013.5
20260906092620 23 72 0.0 0.0 0.00 0.00 0.00 76 1013.4
20260906092115 24 79 0.0 0.0 0.00 0.00 0.00 76 1013.6
20260906091612 24 78 0.0 0.0 0.00 0.00 0.00 75 1013.3
20260906091108 24 78 0.0 0.0 0.00 0.00 0.00 75 1013.3
20260906090608 24 78 0.0 0.0 0.00 0.00 0.00 74 1013.4
20260906090108 24 78 0.0 0.0 0.00 0.00 0.00 74 1013.1
20260906085607 25 72 0.0 0.0 0.00 0.00 0.00 74 1013.3
20260906085102 25 72 0.0 0.0 0.00 0.00 0.00 73 1013.3
20260906084557 25 80 0.0 0.0 0.00 0.00 0.00 73 1013.3
20260906084055 25 82 0.0 0.0 0.00 0.00 0.00 73 1013.1
20260906083551 25 77 0.0 0.0 0.00 0.00 0.00 72 1013.2
20260906083050 25 76 0.0 0.0 0.00 0.00 0.00 72 1013.3
20260906082546 25 74 0.0 0.0 0.00 0.00 0.00 72 1013.1
20260906082042 25 77 0.0 0.0 0.00 0.00 0.00 72 1013.0
20260906081538 25 71 0.0 0.0 0.00 0.00 0.00 71 1013.2
20260906081033 25 71 0.0 0.0 0.00 0.00 0.00 71 1013.0
20260906080529 25 71 0.0 0.0 0.00 0.00 0.00 71 1013.2
20260906080026 25 70 0.0 0.0 0.00 0.00 0.00 71 1013.2
20260906075525 25 73 0.0 0.0 0.00 0.00 0.00 70 1013.2
20260906075020 25 79 0.0 0.0 0.00 0.00 0.00 69 1013.3
20260906074515 25 79 0.0 0.0 0.00 0.00 0.00 69 1013.2
20260906074013 25 83 0.0 0.0 0.00 0.00 0.00 69 1013.3
20260906073508 25 73 0.0 0.0 0.00 0.00 0.00 69 1013.3
20260906073004 25 79 0.0 0.0 0.00 0.00 0.00 68 1013.4
20260906072459 25 79 0.0 0.0 0.00 0.00 0.00 67 1013.5
20260906071955 26 74 0.0 0.0 0.00 0.00 0.00 68 1013.5
20260906071451 26 75 0.0 0.0 0.00 0.00 0.00 67 1013.4
20260906070946 26 76 0.0 0.0 0.00 0.00 0.00 67 1013.7
20260906070442 26 76 0.0 0.0 0.00 0.00 0.00 66 1013.4
20260906065938 26 74 0.0 0.0 0.00 0.00 0.00 66 1013.5
20260906065437 26 70 0.0 0.0 0.00 0.00 0.00 65 1013.3
20260906064934 26 65 0.0 0.0 0.00 0.00 0.00 64 1013.6
20260906064430 26 70 0.0 0.0 0.00 0.00 0.00 64 1013.4
20260906063930 26 76 0.0 0.0 0.00 0.00 0.00 63 1013.6
20260906063425 27 76 0.0 0.0 0.00 0.00 0.00 63 1013.6
20260906062920 27 72 0.0 0.0 0.00 0.00 0.00 62 1013.5
20260906062421 27 65 0.0 0.0 0.00 0.00 0.00 63 1013.6
20260906061915 26 70 0.0 0.0 0.00 0.00 0.00 63 1013.6
20260906061412 26 76 0.0 0.0 0.00 0.00 0.00 63 1013.6
20260906060906 26 75 0.0 0.0 0.00 0.00 0.00 63 1013.5
20260906060403 26 82 0.0 0.0 0.00 0.00 0.00 63 1013.4
20260906055859 26 68 0.0 0.0 0.00 0.00 0.00 63 1013.7
20260906055355 27 74 0.0 0.0 0.00 0.00 0.00 62 1013.7
20260906054849 27 70 0.0 0.0 0.00 0.00 0.00 62 1013.7
20260906054344 26 71 0.0 0.0 0.00 0.00 0.00 62 1013.4
20260906053841 26 80 0.0 0.0 0.00 0.00 0.00 62 1013.5
20260906053336 27 77 0.0 0.0 0.00 0.00 0.00 62 1013.6
20260906052832 27 63 0.0 1.6 0.00 0.00 0.00 61 1013.5
20260906052328 27 74 0.0 0.0 0.00 0.00 0.00 60 1013.6
20260906051825 28 74 0.0 0.0 0.00 0.00 0.00 59 1013.4
20260906051324 28 72 0.0 0.0 0.00 0.00 0.00 57 1013.6
20260906050820 28 82 0.0 0.0 0.00 0.00 0.00 57 1013.4
20260906050315 28 85 0.0 0.0 0.00 0.00 0.00 56 1013.4
20260906045814 28 69 0.0 0.0 0.00 0.00 0.00 56 1013.5
20260906045308 28 62 1.6 1.6 0.00 0.00 0.00 56 1013.2
20260906044805 28 63 1.6 1.6 0.00 0.00 0.00 55 1013.1
20260906044259 28 58 3.2 3.2 0.00 0.00 0.00 55 1013.2
20260906043755 28 59 3.2 6.4 0.00 0.00 0.00 54 1013.5
20260906043251 28 81 1.6 3.2 0.00 0.00 0.00 54 1013.3
20260906042750 28 68 1.6 1.6 0.00 0.00 0.00 54 1013.4
20260906042250 28 68 0.0 1.6 0.00 0.00 0.00 54 1013.4
20260906041745 28 65 0.0 0.0 0.00 0.00 0.00 54 1013.3
20260906041240 28 72 0.0 0.0 0.00 0.00 0.00 53 1013.6
20260906040736 28 71 0.0 0.0 0.00 0.00 0.00 53 1013.3
20260906040231 28 76 1.6 1.6 0.00 0.00 0.00 53 1013.5
20260906035726 28 38 0.0 0.0 0.00 0.00 0.00 53 1013.5
20260906035222 28 73 0.0 0.0 0.00 0.00 0.00 54 1013.4
20260906034721 28 61 0.0 0.0 0.00 0.00 0.00 53 1013.3
20260906034217 28 72 0.0 0.0 0.00 0.00 0.00 54 1013.3
20260906033713 28 75 0.0 0.0 0.00 0.00 0.00 55 1013.4
20260906033212 28 77 0.0 0.0 0.00 0.00 0.00 54 1013.4
20260906032710 28 76 0.0 0.0 0.00 0.00 0.00 54 1013.5
20260906032209 28 75 0.0 0.0 0.00 0.00 0.00 53 1013.4
20260906031704 28 75 0.0 0.0 0.00 0.00 0.00 54 1013.5
20260906031159 28 75 0.0 0.0 0.00 0.00 0.00 54 1013.5
20260906030659 28 76 0.0 0.0 0.00 0.00 0.00 54 1013.3
20260906030154 28 76 0.0 0.0 0.00 0.00 0.00 55 1013.4
20260906025654 28 73 0.0 0.0 0.00 0.00 0.00 54 1013.4
20260906025153 28 77 0.0 0.0 0.00 0.00 0.00 55 1013.3
20260906024648 28 78 0.0 0.0 0.00 0.00 0.00 55 1013.1
20260906024147 28 78 0.0 0.0 0.00 0.00 0.00 54 1013.1
20260906023643 28 75 0.0 0.0 0.00 0.00 0.00 53 1013.1
20260906023143 28 71 0.0 0.0 0.00 0.00 0.00 53 1013.1
20260906022638 28 75 0.0 0.0 0.00 0.00 0.00 54 1013.0
20260906022134 28 68 0.0 0.0 0.00 0.00 0.00 53 1012.9
20260906021630 28 75 0.0 0.0 0.00 0.00 0.00 54 1012.7
20260906021129 29 76 0.0 0.0 0.00 0.00 0.00 52 1012.6
20260906020629 30 76 0.0 0.0 0.00 0.00 0.00 52 1012.5
20260906020124 30 74 0.0 0.0 0.00 0.00 0.00 52 1012.5
20260906015618 30 74 0.0 0.0 0.00 0.00 0.00 51 1012.4
20260906015116 30 76 0.0 0.0 0.00 0.00 0.00 51 1012.7
20260906014611 30 74 0.0 0.0 0.00 0.00 0.00 51 1012.4
20260906014108 30 73 0.0 0.0 0.00 0.00 0.00 50 1012.4
20260906013603 30 78 0.0 0.0 0.00 0.00 0.00 50 1012.3
20260906013058 30 73 0.0 0.0 0.00 0.00 0.00 50 1012.4
20260906012553 30 68 0.0 0.0 0.00 0.00 0.00 50 1012.0
20260906012053 30 71 0.0 0.0 0.00 0.00 0.00 50 1012.0
20260906011549 30 64 0.0 0.0 0.00 0.00 0.00 50 1012.2
20260906011048 30 72 0.0 0.0 0.00 0.00 0.00 50 1011.9
20260906010544 31 68 0.0 0.0 0.00 0.00 0.00 49 1011.9
20260906010040 31 64 1.6 1.6 0.00 0.00 0.00 48 1011.8
20260906005539 31 70 0.0 0.0 0.00 0.00 0.00 48 1011.9
20260906005039 31 66 0.0 0.0 0.00 0.00 0.00 47 1011.8
20260906004538 31 76 0.0 0.0 0.00 0.00 0.00 47 1011.8
20260906004033 31 83 0.0 0.0 0.00 0.00 0.00 46 1011.8
20260906003529 32 72 0.0 0.0 0.00 0.00 0.00 46 1011.9
20260906003025 32 70 0.0 0.0 0.00 0.00 0.00 45 1011.9
20260906002525 32 65 0.0 0.0 0.00 0.00 0.00 44 1012.2
20260906002019 32 63 0.0 0.0 0.00 0.00 0.00 44 1012.0
20260906001516 32 67 0.0 0.0 0.00 0.00 0.00 44 1011.8
20260906001015 32 63 0.0 0.0 0.00 0.00 0.00 43 1012.4
20260906000511 33 62 0.0 0.0 0.00 0.00 0.00 43 1012.0
20260906000006 33 77 0.0 0.0 0.00 0.00 0.00 43 1012.0
20260905235505 33 84 0.0 1.6 0.00 0.00 0.00 42 1012.0
20260905235001 33 65 0.0 1.6 0.00 0.00 0.00 41 1011.9
20260905234456 33 33 4.8 6.4 0.00 0.00 0.00 40 1012.0
20260905233956 34 44 1.6 1.6 0.00 0.00 0.00 40 1012.0
20260905233452 34 80 0.0 1.6 0.00 0.00 0.00 39 1011.7
20260905232950 34 61 1.6 1.6 0.00 0.00 0.00 38 1012.2
20260905232447 35 59 0.0 0.0 0.00 0.00 0.00 37 1011.9
20260905231942 36 16 0.0 1.6 0.00 0.00 0.00 36 1011.8
20260905231438 37 61 4.8 6.4 0.00 0.00 0.00 33 1011.8
20260905230934 38 59 0.0 0.0 0.00 0.00 0.00 29 1011.5
20260905230432 39 50 0.0 0.0 0.00 0.00 0.00 27 1011.7
20260905225931 38 88 0.0 0.0 0.00 0.00 0.00 28 1011.6
20260905225426 38 69 0.0 0.0 0.00 0.00 0.00 27 1011.5
20260905224921 38 57 0.0 0.0 0.00 0.00 0.00 27 1011.5
20260905224417 38 73 0.0 0.0 0.00 0.00 0.00 28 1011.5
20260905223916 38 69 0.0 0.0 0.00 0.00 0.00 28 1011.6
20260905223415 38 28 0.0 3.2 0.00 0.00 0.00 27 1011.6
20260905222914 38 62 0.0 0.0 0.00 0.00 0.00 27 1011.5
20260905222414 40 68 0.0 0.0 0.00 0.00 0.00 27 1011.5
20260905221910 40 39 0.0 0.0 0.00 0.00 0.00 25 1011.7
20260905221406 40 88 0.0 0.0 0.00 0.00 0.00 26 1011.4
20260905220902 40 95 0.0 0.0 0.00 0.00 0.00 26 1011.7
20260905220358 40 87 0.0 0.0 0.00 0.00 0.00 27 1011.7
20260905215857 40 71 0.0 0.0 0.00 0.00 0.00 26 1011.6
20260905215353 40 71 0.0 0.0 0.00 0.00 0.00 26 1011.6
20260905214849 39 76 0.0 0.0 0.00 0.00 0.00 28 1011.8
20260905214344 38 64 0.0 0.0 0.00 0.00 0.00 27 1011.7
20260905213839 38 59 0.0 1.6 0.00 0.00 0.00 28 1011.6
20260905213335 38 61 0.0 0.0 0.00 0.00 0.00 28 1011.8
20260905212835 38 31 1.6 3.2 0.00 0.00 0.00 27 1011.9
20260905212330 39 55 1.6 3.2 0.00 0.00 0.00 26 1011.9
20260905211830 38 72 0.0 0.0 0.00 0.00 0.00 27 1011.8
20260905211325 38 67 0.0 0.0 0.00 0.00 0.00 28 1012.0
20260905210822 38 35 4.8 4.8 0.00 0.00 0.00 28 1012.2
20260905210321 38 36 4.8 4.8 0.00 0.00 0.00 27 1012.2
20260905205820 38 60 1.6 1.6 0.00 0.00 0.00 28 1012.4
20260905205315 38 63 0.0 0.0 0.00 0.00 0.00 28 1012.3
20260905204814 38 32 0.0 0.0 0.00 0.00 0.00 28 1012.4
20260905204311 38 62 1.6 1.6 0.00 0.00 0.00 29 1012.4
20260905203809 38 31 1.6 1.6 0.00 0.00 0.00 29 1012.5
20260905203306 38 46 1.6 1.6 0.00 0.00 0.00 29 1012.5
20260905202801 38 68 0.0 1.6 0.00 0.00 0.00 30 1012.8
20260905202255 38 64 1.6 3.2 0.00 0.00 0.00 30 1013.0
20260905201751 38 12 4.8 6.4 0.00 0.00 0.00 30 1012.9
20260905201246 39 74 3.2 4.8 0.00 0.00 0.00 30 1012.9
20260905200741 40 51 3.2 3.2 0.00 0.00 0.00 29 1012.9
20260905200237 40 75 1.6 1.6 0.00 0.00 0.00 30 1013.1
20260905195735 38 57 0.0 1.6 0.00 0.00 0.00 30 1013.1
20260905195230 39 75 0.0 0.0 0.00 0.00 0.00 29 1013.3
20260905194726 40 47 0.0 1.6 0.00 0.00 0.00 28 1013.3
20260905194225 40 8 0.0 1.6 0.00 0.00 0.00 30 1013.1
20260905193725 40 107 0.0 1.6 0.00 0.00 0.00 28 1013.1
20260905193220 39 71 0.0 0.0 0.00 0.00 0.00 28 1013.3
20260905192715 39 67 0.0 1.6 0.00 0.00 0.00 28 1013.5
20260905192212 38 72 0.0 0.0 0.00 0.00 0.00 30 1013.4
20260905191711 38 82 0.0 0.0 0.00 0.00 0.00 30 1013.6
20260905191209 38 31 0.0 1.6 0.00 0.00 0.00 30 1013.6
20260905190708 38 78 0.0 1.6 0.00 0.00 0.00 30 1013.6
20260905190207 38 36 0.0 0.0 0.00 0.00 0.00 31 1013.7
20260905185706 37 86 0.0 0.0 0.00 0.00 0.00 32 1014.1
20260905185201 37 75 0.0 1.6 0.00 0.00 0.00 32 1014.0
20260905184700 37 121 1.6 1.6 0.00 0.00 0.00 33 1014.0
20260905184159 37 67 1.6 1.6 0.00 0.00 0.00 33 1014.1
20260905183654 37 129 3.2 3.2 0.00 0.00 0.00 32 1014.1
20260905183149 37 78 0.0 0.0 0.00 0.00 0.00 32 1014.4
20260905182648 37 72 0.0 0.0 0.00 0.00 0.00 33 1014.4
20260905182148 38 68 4.8 6.4 0.00 0.00 0.00 33 1014.2
20260905181644 37 74 0.0 0.0 0.00 0.00 0.00 34 1014.5
20260905181142 36 53 0.0 0.0 0.00 0.00 0.00 37 1014.5
20260905180637 37 34 1.6 3.2 0.00 0.00 0.00 37 1014.6
20260905180133 37 83 0.0 0.0 0.00 0.00 0.00 37 1014.9
20260905175632 37 71 0.0 0.0 0.00 0.00 0.00 37 1014.6
20260905175127 37 78 0.0 0.0 0.00 0.00 0.00 37 1014.9
20260905174623 37 73 0.0 0.0 0.00 0.00 0.00 38 1015.0
20260905174118 37 64 0.0 0.0 0.00 0.00 0.00 37 1014.9
20260905173615 36 68 0.0 0.0 0.00 0.00 0.00 37 1014.9
20260905173110 36 65 0.0 0.0 0.00 0.00 0.00 38 1015.1
20260905172608 35 50 0.0 0.0 0.00 0.00 0.00 39 1015.1
20260905172103 36 70 0.0 0.0 0.00 0.00 0.00 38 1015.4
20260905171600 35 57 0.0 0.0 0.00 0.00 0.00 40 1015.4
20260905171056 35 58 0.0 1.6 0.00 0.00 0.00 40 1015.2
20260905170552 35 68 0.0 0.0 0.00 0.00 0.00 42 1015.5
20260905170047 35 47 1.6 1.6 0.00 0.00 0.00 42 1015.6
20260905165542 35 12 3.2 4.8 0.00 0.00 0.00 40 1015.3
20260905165037 35 75 0.0 0.0 0.00 0.00 0.00 43 1015.4
20260905164537 35 77 0.0 0.0 0.00 0.00 0.00 43 1015.7
20260905164032 35 76 3.2 4.8 0.00 0.00 0.00 43 1015.4
20260905163528 35 52 3.2 3.2 0.00 0.00 0.00 42 1015.6
20260905163024 35 47 0.0 1.6 0.00 0.00 0.00 42 1015.8
20260905162520 35 85 0.0 0.0 0.00 0.00 0.00 43 1015.5
20260905162015 34 75 0.0 0.0 0.00 0.00 0.00 44 1015.7
20260905161514 35 61 0.0 0.0 0.00 0.00 0.00 44 1015.7
20260905161013 34 81 1.6 1.6 0.00 0.00 0.00 44 1015.6
20260905160511 34 80 0.0 1.6 0.00 0.00 0.00 45 1015.8
20260905160012 33 63 1.6 3.2 0.00 0.00 0.00 45 1016.0